Regional Weather Roundup
Issued by NWS

Home | Current Version | Previous Version | Text Only | Print | Product List | Glossary On
Versions: 1 2 3 4 5 6 7 8 9 10 11 12 13 14 15 16 17 18 19 20 21 22 23 24 25 26 27 28 29 30 31 32 33 34 35 36 37 38 39 40 41 42 43 44 45 46 47 48 49 50
000
ASUS43 KOAX 111510
RWRNE

WEATHER ROUNDUP FOR NEBRASKA
NATIONAL WEATHER SERVICE OMAHA NE
1000 AM CDT FRI JUL 11 2014

NOTES: SATELLITE DATA IS BEING USED TO AUGMENT CLOUD COVER ABOVE
       12000 FEET.
       "FAIR" INDICATES FEW OR NO CLOUDS BELOW 12,000 FEET WITH NO
       SIGNIFICANT WEATHER AND/OR OBSTRUCTIONS TO VISIBILITY.

  * THESE STATIONS DO NOT REPORT WEATHER SUCH AS RAIN...SNOW OR FOG.

NEZ001>004-019>022-054>056-111600-
NEBRASKA PANHANDLE

CITY           SKY/WX    TMP DP  RH WIND       PRES   REMARKS
SCOTTSBLUFF    MOSUNNY   76  61  59 SE5       30.06R
ALLIANCE       MOSUNNY   75  64  68 SW8       30.05S
CHADRON        MOSUNNY   78  65  63 SW5       30.00R
KIMBALL        MOSUNNY   71  61  70 SW5       30.11R
SIDNEY         MOSUNNY   72  63  73 S6        30.09R
$$

NEZ057>060-069>072-079>082-111600-
SOUTHWEST NEBRASKA

CITY           SKY/WX    TMP DP  RH WIND       PRES   REMARKS
NORTH PLATTE   CLOUDY    72  68  87 NW7       29.98R
IMPERIAL       PTSUNNY   73  67  81 S8        30.00S
LEXINGTON      CLOUDY    73  69  86 S15       29.96F
MCCOOK         MOSUNNY   74  69  85 SE10      29.99F
OGALLALA       PTSUNNY   70  65  84 CALM      30.03R
$$

NEZ005>010-023>029-035>040-094-111600-
NORTH CENTRAL NEBRASKA

CITY           SKY/WX    TMP DP  RH WIND       PRES   REMARKS
VALENTINE      MOSUNNY   80  66  62 VRB3      29.98R
AINSWORTH      PTSUNNY   74  67  77 S7        29.98S
BROKEN BOW     CLOUDY    71  69  93 SW6       30.01R FOG
O`NEILL        CLOUDY    73  66  80 S10       29.98R
ORD            LGT RAIN  72  69  90 SE6       29.97S
THEDFORD       PTSUNNY   77  63  61 NW3       30.02R
$$

NEZ041-046>049-061>064-073>077-083>087-111600-
SOUTH CENTRAL NEBRASKA

CITY           SKY/WX    TMP DP  RH WIND       PRES   REMARKS
GRAND ISLAND   CLOUDY    77  69  76 S13       29.98S
AURORA         PTSUNNY   74  71  88 S12       29.99R
HASTINGS       PTSUNNY   74  66  76 SE9       29.99R
HEBRON         CLOUDY    76  68  76 SE6       30.01S
HOLDREGE       MOSUNNY   75  68  78 S8        29.98S
KEARNEY *      CLOUDY    73  66  78 S13       29.99S
YORK           PTSUNNY   73  70  88 S9        29.99R
$$

NEZ011>018-030>034-042>045-111600-
NORTHEAST NEBRASKA

CITY           SKY/WX    TMP DP  RH WIND       PRES   REMARKS
NORFOLK        LGT RAIN  71  68  90 S10       29.95F
ALBION         CLOUDY    70  66  86 S5        29.99R
BLAIR          CLOUDY    71  64  80 SE12      30.00S
FREMONT        CLOUDY    73  67  79 SE12      29.98F
TEKAMAH        CLOUDY    71  66  84 SE16      29.98R
WAYNE          PTSUNNY   73  69  88 S15       29.96S
$$

NEZ050>053-065>068-078-088>093-111600-
SOUTHEAST NEBRASKA

CITY           SKY/WX    TMP DP  RH WIND       PRES   REMARKS
LINCOLN        CLOUDY    76  67  73 S10       29.99F
OMAHA EPPLEY   CLOUDY    72  65  78 SE15      30.00R
BEATRICE       PTSUNNY   73  67  81 S10       30.01S
FALLS CITY     PTSUNNY   76  68  76 S16       30.00F
NEBRASKA CITY  CLOUDY    73  67  82 CALM      30.03F
PLATTSMOUTH    CLOUDY    73  67  81 SE8       30.02F
$$

NEZ044-045-051>053-067-111600-
OMAHA AREA

CITY           SKY/WX    TMP DP  RH WIND       PRES   REMARKS
OMAHA EPPLEY   CLOUDY    72  65  78 SE15      30.00R
BLAIR          CLOUDY    71  64  80 SE12      30.00S
FREMONT        CLOUDY    73  67  79 SE12      29.98F
MILLARD        CLOUDY    72  67  83 SE7       30.00S
OFFUTT AFB     CLOUDY    72  71  98 SE12      30.00F
PLATTSMOUTH    CLOUDY    73  67  81 SE8       30.02F
WAHOO          FAIR      73  66  81 SE8G18    29.99S
$$



USA.gov is the U.S. government's official web portal to all federal, state and local government web resources and services.